Regional Weather Roundup
Issued by NWS New Orleans/Baton Rouge, LA

Home | Current Version | Previous Version | Text Only | Print | Product List | Glossary On
Versions: 1 2 3 4 5 6 7 8 9 10 11 12 13 14 15 16 17 18 19 20 21 22 23 24 25 26 27 28 29 30 31 32 33 34 35 36 37 38 39 40 41 42 43 44 45 46 47 48 49 50
967
ASUS44 KLIX 231210
RWRLIX
NEW ORLEANS REGIONAL WEATHER ROUNDUP
NATIONAL WEATHER SERVICE NEW ORLEANS LA
700 AM CDT THU OCT 23 2014

NOTE: "FAIR" INDICATES FEW OR NO CLOUDS BELOW 12,000 FEET WITH NO
      SIGNIFICANT WEATHER AND/OR OBSTRUCTIONS TO VISIBILITY.
      SKY/WX - SKY CONDITION AND SIGNIFICANT WEATHER.
      TMP - AIR TEMPERATURE.     DP    - DEWPOINT TEMPERATURE.
      RH  - RELATIVE HUMIDITY.   PRES  - PRESSURE.
      HI  - HEAT INDEX.          WCI   - WIND CHILL INDEX.

*  THESE STATIONS ARE NOT NWS OR FAA STATIONS AND ARE NOT UNDER
   NWS QUALITY CONTROL.

LAZ038-040-048-061>063-065>067-069-231300-
SOUTHEAST LOUISIANA

CITY           SKY/WX    TMP DP  RH WIND       PRES   REMARKS
N.O. AUDUBON     N/A     59 N/A N/A MISG        N/A
6HR MIN TEMP:  58; 6HR MAX TEMP:  67;

N.O. INTL ARPT CLEAR     62  50  64 NE7       30.07R
6HR MIN TEMP:  62; 6HR MAX TEMP:  68;

N.O. LAKEFRONT LGT RAIN  62  50  64 NE16      30.08R
6HR MIN TEMP:  62; 6HR MAX TEMP:  68; 6HR PCP: TRACE;

N.O. DOWNTOWN*   N/A     61  46  59 NE6       30.08R
6HR MIN TEMP:  61; 6HR MAX TEMP:  66;

SLIDELL        CLEAR     46  43  89 CALM      30.09R
6HR MIN TEMP:  46; 6HR MAX TEMP:  56;

BATON ROUGE    CLEAR     50  46  86 CALM      30.10R
6HR MIN TEMP:  50; 6HR MAX TEMP:  57;

BOOTHVILLE     CLEAR     69  58  67 NE7       30.05R
6HR MIN TEMP:  69; 6HR MAX TEMP:  72;

BELLE CHASSE   CLEAR     56  49  77 NE6       30.06S
6HR MIN TEMP:  56; 6HR MAX TEMP:  62;

BOGALUSA*        N/A     44  40  88 CALM      30.13R
6HR MIN TEMP:  44; 6HR MAX TEMP:  51;

NEW ROADS*       N/A     51  46  84 N3        30.11R
6HR MIN TEMP:  51; 6HR MAX TEMP:  57;

GONZALES*        N/A     52  50  92 N3        30.08S
6HR MIN TEMP:  52; 6HR MAX TEMP:  60;

HAMMOND*       CLEAR     50  45  81 CALM      30.11S
HOUMA*         CLEAR     54  48  82 N5        30.07R
PORT FOURCHON* SUNNY     68  59  73 NE10      30.08R

$$

MSZ070-080>082-231300-
SOUTHERN MISSISSIPPI

CITY           SKY/WX    TMP DP  RH WIND       PRES   REMARKS
MCCOMB         CLEAR     50  44  80 NE6       30.11R
6HR MIN TEMP:  50; 6HR MAX TEMP:  56;

GULFPORT       CLEAR     50  44  80 NE6       30.08R
6HR MIN TEMP:  50; 6HR MAX TEMP:  56;

BILOXI         CLEAR     50  45  83 NE9       30.08R
6HR MIN TEMP:  50; 6HR MAX TEMP:  57;

PASCAGOULA     CLEAR     45  42  89 N5        30.09R
6HR MIN TEMP:  42; 6HR MAX TEMP:  51;

STENNIS ARPT*  CLEAR     52  43  71 NE7       30.09

$$

COASTAL OBSERVATIONS
LAKE AND NEARSHORE STATIONS

STATION/POSITION TIME  TEMP    WIND        PRES    WAVE
                       AIR SEA DIR/SP/G            HT/PER
                 (UTC) (F)     (DEG/KT/KT) (MB)    (FT/S)
PASCAGOULA       1200   53      30/  8/ 12 1017.8
WAVELAND YACHT   1200   56      50/ 12/ 15 1017.7
GRAND ISLE       1200   68 74   60/  8/ 12 1017.9
SOUTHWEST PASS   1200   71 81              1017.2
NEW CANAL        1200   63 70   60/ 15/ 18 1018.5
SHELL BEACH      1200   65 66   50/ 15/ 18 1017.9

OFFSHORE STATIONS

STATION/POSITION TIME  TEMP    WIND        PRES    WAVE
                       AIR SEA DIR/SP/G            HT/PER
                 (UTC) (F)     (DEG/KT/KT) (MB)    (FT/S)
64 S DAUPHIN ISL 1139   71 78   60/ 16/ 19 1017.5    4/ 6

$$




USA.gov is the U.S. government's official web portal to all federal, state and local government web resources and services.